[[{"header":{"parameterUnit":"m.s-1","parameterCategory":2,"la1":30.2991,"la2":30.254,"lo1":-89.0895,"lo2":-89.0444,"dy":0.0017,"dx":0.0017,"nx":28,"ny":28,"refTime":"2023-07-26T09:00:00:Z","depth":"0","parameterNumber":2,"parameterNumberName":"U-component_of_CURRENTS"},"data":[0,0,0,0,0,0,0,0,0,0,0,0,0,0,0,0,0,0,0,0,0,0,0,0,0,0,0,0,0,0,0,0,0,0,0,0,0,0,0,0,0,0,0,0,0,0,0,0,0,0,0,0,0,0,0,0,0,0,0.2576,0.2576,0,0.2578,0.2579,0.2579,0.2608,0.2609,0.2609,0.2609,0.2675,0.2676,0.2677,0,0,0,0,0,0,0,0,0,0,0,0,0,0.2694,0.2691,0.2576,0.2576,0.2576,0.2578,0.2579,0.2579,0.2608,0.2609,0.2609,0.261,0.2674,0.2676,0.2678,0,0,0,0,0,0,0,0,0,0,0,0,0,0.2667,0.269,0.2576,0.2588,0.2589,0.2578,0.2579,0.2579,0.2608,0.2609,0.2609,0.261,0.2674,0.2676,0.2678,0.2679,0,0,0.2684,0.2685,0,0,0,0,0,0,0,0,0.2668,0.2663,0.2586,0.2587,0.2588,0.259,0.2644,0.2614,0.2608,0.2605,0.2609,0.261,0.265,0.2654,0.2657,0.2682,0.2684,0.2684,0.2686,0.2686,0.2687,0,0,0,0,0,0,0,0.267,0.2664,0.2581,0.2586,0.2587,0.2625,0.2622,0.2639,0.2628,0.2605,0.2606,0.26,0.2651,0.2655,0.2659,0.2685,0.2684,0.2686,0.2687,0.2688,0.2749,0.2749,0,0,0,0,0,0,0.2656,0.2664,0.2581,0.2581,0.2626,0.2622,0.2618,0.2592,0.2626,0.263,0.26,0.2601,0.2651,0.2657,0.2661,0.2688,0.2686,0.2688,0.269,0.2748,0.2749,0.2749,0,0,0,0,0,0,0.2658,0.2648,0.2581,0.2622,0.2615,0.2618,0.2589,0.2592,0.2598,0.2621,0.2627,0.2604,0.2652,0.2659,0.2685,0.269,0.2689,0.2691,0.2748,0.2749,0.2749,0.2725,0,0,0,0,0,0,0.2661,0.2648,0.2631,0.2619,0.2612,0.2573,0.2588,0.2591,0.2592,0.2594,0.2626,0.2633,0.2653,0.2682,0.2687,0.2692,0.2693,0.2748,0.2748,0.2749,0.2726,0.2725,0.2724,0,0,0,0,0,0.2665,0.2626,0.263,0.262,0.2585,0.2572,0.2572,0.2581,0.2591,0.259,0.2619,0.2632,0.269,0.2684,0.269,0.2696,0.2747,0.2748,0.2749,0.2726,0.2725,0.2724,0,0,0,0,0,0,0.266,0.2624,0.2629,0.2579,0.2579,0.2575,0.2566,0.2579,0.2599,0.2603,0.2635,0.2643,0.2672,0.2685,0.2677,0.2716,0.2721,0.2723,0.2702,0.2701,0.2701,0.2678,0.2694,0,0,0,0,0,0.2652,0.2617,0.2603,0.2567,0.2561,0.2568,0.2565,0.2572,0.2583,0.2592,0.2617,0.2646,0.2678,0.2691,0.2718,0.2732,0.2747,0.2742,0.2741,0.274,0.2727,0.2765,0.2766,0.2752,0.2752,0.2752,0,0,0.2633,0.2615,0.2592,0.2565,0.2562,0.2556,0.2568,0.2555,0.2562,0.2596,0.2614,0.2646,0.2684,0.2708,0.2721,0.2719,0.2752,0.2742,0.2741,0.2727,0.2766,0.2767,0.2769,0.2753,0.2753,0.2753,0,0,0.2589,0.2569,0.2532,0.2536,0.2529,0.2539,0.2536,0.2537,0.2549,0.2565,0.2603,0.2632,0.2669,0.2699,0.272,0.2729,0.2752,0.2744,0.2717,0.2755,0.2756,0.2757,0.2773,0.2776,0.2738,0.2738,0.2738,0,0.2576,0.253,0.2524,0.2508,0.2512,0.2531,0.2518,0.253,0.2547,0.2556,0.2567,0.2628,0.2663,0.2698,0.2708,0.2726,0.2747,0.2716,0.2753,0.2754,0.2756,0.2773,0.2776,0.2737,0.2737,0.2737,0.2738,0,0.251,0.2494,0.2475,0.2466,0.2472,0.2461,0.2481,0.2495,0.2514,0.2527,0.2558,0.2601,0.2637,0.2658,0.2687,0.272,0.273,0.2752,0.2751,0.2756,0.2773,0.2777,0.2736,0.2736,0.2736,0.2737,0,0,0.2434,0.2429,0.2427,0.2436,0.2454,0.2452,0.2467,0.2482,0.2491,0.2511,0.2519,0.2577,0.2596,0.262,0.2662,0.269,0.2726,0.2723,0.2725,0.2731,0.2798,0.2745,0.2745,0.2761,0.2762,0.2763,0.2803,0,0.2394,0.2367,0.2376,0.2377,0.2374,0.2414,0.243,0.2453,0.2475,0.2489,0.2523,0.2549,0.2583,0.2606,0.2639,0.271,0.2737,0.2712,0.2798,0.28,0.2747,0.2748,0.2615,0.2635,0.2807,0.2808,0.2809,0,0.2334,0.2333,0.2316,0.2354,0.2354,0.236,0.24,0.2414,0.2443,0.246,0.2481,0.2511,0.2554,0.2583,0.2677,0.2663,0.2725,0.277,0.2773,0.2731,0.2754,0.266,0.2636,0.2448,0.2815,0.2814,0.2814,0,0.2298,0.2299,0.2292,0.2301,0.2334,0.2341,0.2362,0.2397,0.241,0.2437,0.2442,0.2492,0.2516,0.2595,0.2679,0.2692,0.2771,0.2805,0.2808,0.2805,0.2709,0.2696,0.2503,0.2868,0.2868,0.2868,0.2867,0,0.2258,0.2256,0.2273,0.227,0.2277,0.231,0.2318,0.2347,0.2372,0.2375,0.242,0.2431,0.2524,0.2576,0.2663,0.273,0.2762,0.2792,0.2811,0.2696,0.2682,0.2529,0.248,0.2869,0.2869,0.2868,0.2868,0,0.2218,0.2225,0.2224,0.2249,0.2258,0.226,0.2291,0.2296,0.2326,0.233,0.2336,0.2389,0.2453,0.2532,0.2653,0.2697,0.2673,0.28,0.2642,0.264,0.2461,0.2419,0.2271,0.2242,0.2806,0.2805,0.2804,0,0.2185,0.2181,0.2202,0.2205,0.2212,0.2224,0.2234,0.2269,0.2272,0.2305,0.2298,0.2348,0.2377,0.2499,0.2586,0.2689,0.261,0.2621,0.2619,0.2407,0.2375,0.2313,0.2296,0.2487,0.2484,0.2481,0.2479,0,0.2136,0.2147,0.2149,0.2163,0.2168,0.2178,0.2188,0.2184,0.2216,0.2214,0.2223,0.2245,0.2337,0.2362,0.2471,0.253,0.2424,0.2567,0.2389,0.213,0.2008,0.2002,0.2494,0.2454,0.2456,0.2458,0.2459,0.246,0.2097,0.2092,0.2103,0.2121,0.2127,0.2126,0.2113,0.2111,0.21,0.2068,0.2126,0.212,0.2144,0.2277,0.2291,0.2167,0.2283,0.2098,0.2074,0.2037,0.1954,0.2374,0.2331,0.2332,0.2334,0.2335,0.2336,0,0.2045,0.2051,0.2064,0.207,0.2069,0.2092,0.2078,0.2043,0.1995,0.198,0.1964,0.1928,0.1883,0.1886,0.1812,0.1684,0.1663,0.1575,0.1423,0.1452,0.1838,0.1762,0.1538,0.1539,0.1539,0.1539,0.1539,0.1539,0.2008,0.2002,0.2024,0.2018,0.2025,0.1992,0.1975,0.191,0.1884,0.1772,0.1721,0.1706,0.1644,0.1397,0.1165,0.1141,0.1023,0.0946,0.1,0.1187,0.1232,0.1275,0.1185,0.0844,0.0843,0.0556,0.0552,0.055]},{"header":{"parameterUnit":"m.s-1","parameterCategory":2,"la1":30.2991,"la2":30.254,"lo1":-89.0895,"lo2":-89.0444,"dy":0.0017,"dx":0.0017,"nx":28,"ny":28,"refTime":"2023-07-26T09:00:00:Z","depth":"0","parameterNumber":3,"parameterNumberName":"V-component_of_CURRENTS"},"data":[0,0,0,0,0,0,0,0,0,0,0,0,0,0,0,0,0,0,0,0,0,0,0,0,0,0,0,0,0,0,0,0,0,0,0,0,0,0,0,0,0,0,0,0,0,0,0,0,0,0,0,0,0,0,0,0,0,0,0.0569,0.057,0,0.0685,0.0686,0.0687,0.074,0.074,0.074,0.074,0.0721,0.0721,0.072,0,0,0,0,0,0,0,0,0,0,0,0,0,0.0372,0.0375,0.0569,0.057,0.0572,0.0685,0.0686,0.0688,0.074,0.074,0.074,0.074,0.0722,0.0721,0.072,0,0,0,0,0,0,0,0,0,0,0,0,0,0.0468,0.0376,0.0568,0.0613,0.0618,0.0685,0.0686,0.0688,0.074,0.074,0.074,0.074,0.0722,0.0721,0.072,0.0715,0,0,0.0718,0.0718,0,0,0,0,0,0,0,0,0.0462,0.0475,0.0605,0.061,0.0616,0.0699,0.0611,0.0691,0.074,0.0692,0.074,0.074,0.0703,0.0704,0.0725,0.0714,0.0713,0.0718,0.0717,0.0717,0.0717,0,0,0,0,0,0,0,0.0456,0.047,0.0613,0.0606,0.0613,0.062,0.0634,0.0626,0.0692,0.0696,0.07,0.0716,0.0704,0.0726,0.0724,0.0713,0.0718,0.0717,0.0717,0.0716,0.0683,0.0683,0,0,0,0,0,0,0.0447,0.0464,0.0609,0.0617,0.054,0.0624,0.0639,0.0671,0.0695,0.07,0.0716,0.0718,0.0727,0.0725,0.0724,0.0717,0.0717,0.0716,0.0716,0.0684,0.0683,0.0683,0,0,0,0,0,0,0.0442,0.0459,0.0605,0.0543,0.0562,0.0628,0.0663,0.0673,0.0694,0.0712,0.0714,0.0726,0.0727,0.0725,0.072,0.0716,0.0716,0.0715,0.0684,0.0683,0.0683,0.0703,0,0,0,0,0,0,0.0436,0.0457,0.0472,0.0543,0.0566,0.0644,0.0663,0.0676,0.0705,0.0709,0.0721,0.072,0.0727,0.0722,0.072,0.0715,0.0715,0.0685,0.0684,0.0683,0.0703,0.0703,0.0703,0,0,0,0,0,0.0429,0.0452,0.0473,0.049,0.0587,0.0644,0.0656,0.07,0.0705,0.0717,0.0724,0.0719,0.0715,0.0721,0.0719,0.0714,0.0685,0.0684,0.0683,0.0703,0.0703,0.0703,0,0,0,0,0,0,0.0365,0.0462,0.0485,0.0535,0.0584,0.0654,0.067,0.0695,0.0715,0.0709,0.0719,0.0719,0.0715,0.0706,0.0713,0.07,0.0696,0.0695,0.0712,0.0712,0.0712,0.0717,0.0714,0,0,0,0,0,0.036,0.0409,0.0486,0.0521,0.0546,0.0604,0.063,0.066,0.0691,0.0701,0.0711,0.071,0.071,0.0705,0.0705,0.0695,0.07,0.0687,0.0687,0.0688,0.0689,0.0705,0.0708,0.0679,0.0679,0.0679,0,0,0.0342,0.0403,0.0427,0.0511,0.0551,0.0591,0.0619,0.0658,0.0679,0.069,0.0707,0.0712,0.0708,0.0709,0.0704,0.07,0.0696,0.0686,0.0687,0.0688,0.0705,0.0708,0.071,0.0679,0.0679,0.0679,0,0,0.0335,0.0385,0.0425,0.0468,0.0536,0.0573,0.0581,0.0646,0.0662,0.0681,0.0693,0.07,0.0696,0.0706,0.0705,0.07,0.0701,0.0689,0.0693,0.0709,0.0712,0.0714,0.0722,0.0725,0.0686,0.0686,0.0686,0,0.0301,0.0379,0.0438,0.0484,0.0516,0.0561,0.0595,0.0619,0.067,0.0677,0.068,0.0699,0.0698,0.0705,0.0709,0.0703,0.0709,0.0696,0.0711,0.0714,0.0716,0.0724,0.0727,0.0687,0.0687,0.0686,0.0686,0,0.0336,0.0389,0.0409,0.049,0.0523,0.0558,0.0604,0.0623,0.064,0.0665,0.0677,0.0692,0.0703,0.0701,0.0705,0.0718,0.0716,0.0716,0.0716,0.0721,0.0728,0.0731,0.0688,0.0688,0.0687,0.0687,0,0,0.0279,0.041,0.0416,0.0457,0.0531,0.0563,0.0585,0.0626,0.0642,0.0665,0.0686,0.0693,0.0705,0.0705,0.0713,0.0726,0.0752,0.0728,0.0729,0.0746,0.0785,0.0753,0.0753,0.0759,0.076,0.0761,0.0782,0,0.0284,0.0376,0.0434,0.0491,0.0538,0.0579,0.0601,0.0632,0.0653,0.0679,0.0685,0.0705,0.0703,0.0716,0.0729,0.0756,0.0762,0.0746,0.0769,0.0769,0.0749,0.0756,0.0803,0.0824,0.0786,0.0786,0.0787,0,0.0299,0.0365,0.0433,0.0518,0.0537,0.0564,0.0609,0.0637,0.0669,0.0686,0.0702,0.0713,0.0738,0.0735,0.0773,0.0765,0.0771,0.0784,0.0785,0.0751,0.0743,0.0812,0.0831,0.0832,0.0792,0.0791,0.0791,0,0.0255,0.0357,0.0413,0.0444,0.0539,0.0556,0.0592,0.0631,0.0655,0.0691,0.0715,0.0735,0.0762,0.0775,0.0799,0.079,0.084,0.083,0.08,0.0798,0.0839,0.0838,0.0871,0.0842,0.0842,0.0842,0.0842,0,0.0253,0.0294,0.0398,0.043,0.0474,0.0537,0.0571,0.061,0.0657,0.0689,0.0716,0.0752,0.0777,0.0804,0.0809,0.082,0.0846,0.0802,0.0803,0.0844,0.0844,0.0846,0.0824,0.0843,0.0843,0.0843,0.0843,0,0.0213,0.0284,0.0349,0.044,0.0464,0.0491,0.0564,0.0591,0.0645,0.0691,0.0704,0.0772,0.0819,0.0831,0.0866,0.0839,0.0859,0.0838,0.0878,0.0881,0.0827,0.0804,0.0801,0.0869,0.0803,0.0803,0.0802,0,0.0211,0.0249,0.0341,0.0369,0.0412,0.0463,0.0498,0.057,0.0605,0.0706,0.0729,0.0791,0.0847,0.0885,0.0871,0.0867,0.0864,0.0863,0.0842,0.083,0.0806,0.0785,0.0843,0.0911,0.0911,0.0912,0.0912,0,0.0199,0.0229,0.0281,0.0343,0.0384,0.0438,0.0497,0.0525,0.0613,0.0674,0.0769,0.0828,0.0884,0.093,0.0909,0.0894,0.0883,0.0864,0.0864,0.0893,0.0866,0.0931,0.088,0.0915,0.0914,0.0914,0.0914,0.0914,0.0174,0.02,0.0265,0.0319,0.0367,0.042,0.0457,0.0527,0.0602,0.0713,0.0779,0.0901,0.0982,0.0983,0.0942,0.0905,0.0892,0.0889,0.0863,0.0845,0.0902,0.0835,0.0854,0.0854,0.0853,0.0853,0.0852,0,0.0151,0.0194,0.0243,0.0312,0.0354,0.0391,0.0466,0.0514,0.0604,0.0725,0.0828,0.0995,0.1036,0.1047,0.1001,0.0935,0.096,0.0903,0.0921,0.0986,0.095,0.0947,0.0974,0.0974,0.0974,0.0974,0.0974,0.0974,0.0147,0.0183,0.0219,0.0287,0.0333,0.0392,0.0433,0.0519,0.0619,0.0785,0.0916,0.1026,0.1128,0.101,0.0952,0.0942,0.0975,0.0912,0.094,0.0925,0.0923,0.0922,0.0916,0.0937,0.0937,0.1052,0.1052,0.1052]}],[{"header":{"parameterUnit":"m.s-1","parameterCategory":2,"la1":30.2991,"la2":30.254,"lo1":-89.0895,"lo2":-89.0444,"dy":0.0017,"dx":0.0017,"nx":28,"ny":28,"refTime":"2023-07-26T09:00:00:Z","depth":"2","parameterNumber":2,"parameterNumberName":"U-component_of_CURRENTS"},"data":[0,0,0,0,0,0,0,0,0,0,0,0,0,0,0,0,0,0,0,0,0,0,0,0,0,0,0,0,0,0,0,0,0,0,0,0,0,0,0,0,0,0,0,0,0,0,0,0,0,0,0,0,0,0,0,0,0,0,0.0445,0.0445,0,0.0502,0.0502,0.0503,0.0578,0.0579,0.058,0.0581,0.0676,0.0678,0.0679,0,0,0,0,0,0,0,0,0,0,0,0,0,0.0447,0.0447,0.0445,0.0445,0.0446,0.0501,0.0502,0.0503,0.0578,0.0579,0.0581,0.0582,0.0676,0.0678,0.0679,0,0,0,0,0,0,0,0,0,0,0,0,0,0.0471,0.0446,0.0444,0.0488,0.0493,0.0501,0.0502,0.0504,0.0578,0.0579,0.0581,0.0582,0.0675,0.0677,0.068,0.0662,0,0,0.0687,0.0688,0,0,0,0,0,0,0,0,0.0469,0.0471,0.0481,0.0485,0.049,0.0533,0.0538,0.0558,0.0577,0.0547,0.0581,0.0583,0.0629,0.0636,0.0645,0.0666,0.067,0.0687,0.0688,0.0689,0.069,0,0,0,0,0,0,0,0.0467,0.0469,0.0469,0.0482,0.0487,0.0521,0.0526,0.0542,0.0581,0.055,0.0555,0.0558,0.0633,0.0642,0.0648,0.0672,0.0687,0.0689,0.069,0.0691,0.0785,0.0787,0,0,0,0,0,0,0.0452,0.0467,0.0467,0.0471,0.0481,0.0519,0.0525,0.0519,0.058,0.059,0.0557,0.0561,0.0638,0.0645,0.0651,0.0723,0.0689,0.0691,0.0693,0.0784,0.0786,0.0787,0,0,0,0,0,0,0.0452,0.0451,0.0465,0.047,0.0473,0.0517,0.051,0.0519,0.0556,0.0584,0.0596,0.0587,0.0639,0.0648,0.07,0.0724,0.0692,0.0695,0.0783,0.0785,0.0786,0.0808,0,0,0,0,0,0,0.0452,0.0451,0.0455,0.0468,0.0472,0.0484,0.0509,0.0519,0.0553,0.0561,0.0614,0.0623,0.0641,0.0697,0.0703,0.0726,0.0696,0.0782,0.0784,0.0786,0.0806,0.0811,0.0814,0,0,0,0,0,0.0451,0.0443,0.0455,0.0456,0.0472,0.0484,0.049,0.0528,0.0553,0.0569,0.0616,0.0623,0.0714,0.07,0.0706,0.0731,0.0781,0.0783,0.0786,0.0804,0.081,0.0814,0,0,0,0,0,0,0.0452,0.045,0.0463,0.0457,0.0477,0.0497,0.0513,0.0537,0.0585,0.0602,0.0636,0.0648,0.0707,0.0712,0.0695,0.0765,0.0748,0.0752,0.076,0.0766,0.077,0.0766,0.0698,0,0,0,0,0,0.045,0.0444,0.0454,0.0455,0.0462,0.0492,0.0507,0.0531,0.0566,0.059,0.0629,0.0671,0.0715,0.0736,0.0771,0.08,0.0801,0.0821,0.0825,0.0828,0.0831,0.0866,0.0873,0.0795,0.0795,0.0795,0,0,0.045,0.045,0.0449,0.0456,0.0474,0.0485,0.0507,0.053,0.0556,0.059,0.0648,0.0691,0.0729,0.0776,0.0801,0.0787,0.0847,0.0832,0.0834,0.0835,0.0869,0.0876,0.0883,0.0797,0.0797,0.0796,0,0,0.0438,0.0449,0.0438,0.0453,0.0476,0.0494,0.0504,0.0536,0.0572,0.0617,0.0663,0.0723,0.0769,0.0812,0.0836,0.0879,0.0874,0.0889,0.09,0.0934,0.0941,0.0946,0.0935,0.094,0.0883,0.0883,0.0883,0,0.0442,0.043,0.0441,0.0442,0.0461,0.0498,0.0507,0.0539,0.0592,0.0626,0.064,0.0751,0.0787,0.0857,0.088,0.0889,0.0891,0.0877,0.0939,0.0945,0.095,0.0938,0.0943,0.0884,0.0884,0.0884,0.0884,0,0.0417,0.0425,0.0424,0.0436,0.0458,0.0474,0.0511,0.0552,0.0598,0.0635,0.0721,0.0778,0.0841,0.0868,0.0889,0.0954,0.0935,0.0945,0.0923,0.0959,0.0943,0.0948,0.0886,0.0886,0.0885,0.0885,0,0,0.0391,0.0401,0.0407,0.0419,0.0461,0.0473,0.0522,0.0574,0.0611,0.068,0.0734,0.0829,0.0867,0.0897,0.0938,0.0975,0.1015,0.0976,0.0978,0.0959,0.106,0.0967,0.0963,0.1038,0.104,0.1041,0.1024,0,0.0378,0.0369,0.0388,0.0412,0.0417,0.0475,0.0513,0.0572,0.0629,0.0688,0.0771,0.0835,0.0873,0.091,0.0957,0.1014,0.1032,0.1016,0.1033,0.1033,0.0942,0.0968,0.0834,0.0802,0.1029,0.1029,0.103,0,0.0357,0.0354,0.0359,0.0401,0.0411,0.0435,0.0513,0.055,0.0642,0.0687,0.0769,0.0828,0.0918,0.0931,0.1029,0.1018,0.1037,0.1066,0.1066,0.0977,0.095,0.0808,0.0801,0.1037,0.1037,0.1036,0.1036,0,0.0331,0.0347,0.0352,0.0365,0.0408,0.0438,0.0474,0.0555,0.0593,0.0686,0.0726,0.0832,0.0892,0.0951,0.1029,0.1029,0.1113,0.1112,0.1037,0.1029,0.0915,0.0894,0.1157,0.1157,0.1157,0.1157,0.1157,0,0.0312,0.0324,0.0338,0.0341,0.0362,0.0409,0.045,0.0502,0.0575,0.0626,0.0721,0.0783,0.0906,0.0977,0.1022,0.1043,0.1103,0.1037,0.1027,0.0915,0.0896,0.1107,0.1102,0.1156,0.1156,0.1156,0.1156,0,0.0292,0.0301,0.0303,0.0332,0.0346,0.0361,0.0418,0.0448,0.0522,0.059,0.0622,0.0756,0.0854,0.0945,0.1043,0.1022,0.1055,0.1041,0.0879,0.085,0.0939,0.0935,0.0935,0.0932,0.0929,0.0927,0.0925,0,0.0281,0.0274,0.0283,0.0283,0.0299,0.0325,0.0348,0.0415,0.0448,0.0577,0.0608,0.0728,0.0775,0.086,0.0879,0.0891,0.1011,0.0771,0.0745,0.093,0.0921,0.0921,0.0921,0.0596,0.0591,0.0588,0.0585,0,0.0255,0.0257,0.0251,0.024,0.0253,0.0264,0.0302,0.0315,0.0409,0.0472,0.0561,0.0596,0.0661,0.0637,0.065,0.0645,0.0756,0.0692,0.0954,0.0668,0.0608,0.06,0.0611,0.0552,0.0556,0.0558,0.056,0.0561,0.0238,0.0217,0.0199,0.0192,0.02,0.02,0.0206,0.0254,0.0294,0.0388,0.0447,0.0477,0.0419,0.0379,0.0417,0.0489,0.051,0.0487,0.05,0.0516,0.0475,0.0414,0.0312,0.0313,0.0315,0.0316,0.0318,0,0.0205,0.0179,0.0157,0.0132,0.0119,0.0154,0.0176,0.0191,0.0228,0.0291,0.0335,0.0214,0.0154,0.0234,0.0249,0.0211,0.0235,0.0256,0.0289,0.0314,0.0338,0.0294,0.008,0.0081,0.0082,0.0083,0,0,0.0182,0.0134,0.0105,0.0052,0.0057,0.0057,0.0069,0.0118,0.0146,0.0156,0.017,0.0095,0.0085,0.0046,0.0026,0.0102,0.0226,0.0093,0.025,0.0305,0.0332,0.04,0.0349,0,0,0,0,0]},{"header":{"parameterUnit":"m.s-1","parameterCategory":2,"la1":30.2991,"la2":30.254,"lo1":-89.0895,"lo2":-89.0444,"dy":0.0017,"dx":0.0017,"nx":28,"ny":28,"refTime":"2023-07-26T09:00:00:Z","depth":"2","parameterNumber":3,"parameterNumberName":"V-component_of_CURRENTS"},"data":[0,0,0,0,0,0,0,0,0,0,0,0,0,0,0,0,0,0,0,0,0,0,0,0,0,0,0,0,0,0,0,0,0,0,0,0,0,0,0,0,0,0,0,0,0,0,0,0,0,0,0,0,0,0,0,0,0,0,-0.0029,-0.0028,0,0.0039,0.0039,0.004,0.0031,0.003,0.0029,0.0028,-0.003,-0.003,-0.0031,0,0,0,0,0,0,0,0,0,0,0,0,0,-0.0165,-0.0162,-0.0029,-0.0028,-0.0027,0.0039,0.0039,0.004,0.0031,0.003,0.0029,0.0028,-0.0029,-0.003,-0.0031,0,0,0,0,0,0,0,0,0,0,0,0,0,-0.0104,-0.0161,-0.0029,-0.0022,-0.0021,0.0038,0.0039,0.004,0.0031,0.003,0.0028,0.0027,-0.0029,-0.003,-0.0031,-0.0007,0,0,-0.0034,-0.0034,0,0,0,0,0,0,0,0,-0.0107,-0.0099,-0.0024,-0.0023,-0.0021,0.0026,-0.0029,0.0019,0.0032,0.001,0.0028,0.0026,-0.0021,-0.0022,-0.0007,-0.001,-0.0012,-0.0034,-0.0035,-0.0035,-0.0035,0,0,0,0,0,0,0,-0.0111,-0.0102,-0.0003,-0.0023,-0.0021,-0.0023,-0.0016,-0.002,-0.0001,0.0012,0.0012,0.0022,-0.0021,-0.0005,-0.0008,-0.0013,-0.0034,-0.0035,-0.0035,-0.0036,-0.003,-0.003,0,0,0,0,0,0,-0.0114,-0.0105,-0.0006,-0.0001,-0.0067,-0.0019,-0.0011,0.0011,0.0001,0.0,0.0023,0.0021,-0.0003,-0.0007,-0.0011,0.0004,-0.0035,-0.0036,-0.0036,-0.0031,-0.003,-0.0029,0,0,0,0,0,0,-0.0117,-0.0106,-0.0008,-0.0052,-0.0039,-0.0015,0.0011,0.0013,0.0017,0.0012,0.0007,0.0021,-0.0005,-0.0009,-0.0006,0.0002,-0.0036,-0.0037,-0.0032,-0.0031,-0.003,0.0041,0,0,0,0,0,0,-0.0121,-0.0107,-0.0098,-0.0051,-0.0037,0.0031,0.0012,0.0016,0.0027,0.0024,0.0009,0.0003,-0.0006,-0.0005,-0.0007,-0.0,-0.0038,-0.0033,-0.0031,-0.003,0.0037,0.0044,0.005,0,0,0,0,0,-0.0126,-0.0098,-0.0098,-0.0086,-0.0023,0.0033,0.004,0.005,0.0028,0.0044,0.0034,0.0003,0.0001,-0.0004,-0.0007,-0.0001,-0.0033,-0.0032,-0.003,0.0035,0.0043,0.0049,0,0,0,0,0,0,-0.0156,-0.0095,-0.0094,-0.0051,-0.0014,0.0031,0.0046,0.0048,0.0055,0.004,0.0023,0.0018,0.0023,0.0002,-0.0003,0.0003,-0.0026,-0.0025,0.0025,0.0032,0.0038,0.0047,-0.0039,0,0,0,0,0,-0.0157,-0.0119,-0.0069,-0.0038,-0.0019,0.0008,0.0026,0.0035,0.0052,0.0053,0.0046,0.0031,0.0032,0.0024,0.0022,0.0029,0.0004,0.0026,0.0032,0.0038,0.0043,0.0021,0.0026,-0.0024,-0.0024,-0.0024,0,0,-0.0163,-0.0123,-0.0106,-0.0042,-0.0017,0.0027,0.0015,0.0048,0.0075,0.0044,0.0066,0.0055,0.0039,0.0055,0.0052,0.0034,0.004,0.004,0.0045,0.0047,0.0023,0.0028,0.0032,-0.0023,-0.0023,-0.0024,0,0,-0.0143,-0.0118,-0.0079,-0.0042,0.0005,0.0031,0.0037,0.008,0.0086,0.0114,0.0096,0.0096,0.0093,0.0095,0.0091,0.0126,0.0077,0.011,0.0146,0.0125,0.0129,0.0132,0.0113,0.0114,0.0109,0.0109,0.0109,0,-0.0158,-0.0094,-0.0062,-0.0012,0.0019,0.0032,0.0076,0.0099,0.0133,0.0143,0.0123,0.0133,0.0117,0.0138,0.0152,0.0141,0.0116,0.0122,0.0133,0.0136,0.0138,0.0117,0.0117,0.0112,0.0112,0.0112,0.0111,0,-0.01,-0.0057,-0.003,0.0039,0.0076,0.0117,0.0156,0.0178,0.0178,0.0196,0.0212,0.0204,0.0204,0.0199,0.0188,0.0197,0.0171,0.0148,0.0117,0.0147,0.0123,0.0122,0.0118,0.0116,0.0115,0.0114,0,0,-0.0115,-0.0009,-0.0004,0.0035,0.0105,0.0143,0.0189,0.0242,0.0264,0.0276,0.0302,0.0307,0.0286,0.028,0.026,0.0245,0.0242,0.0203,0.02,0.0188,0.0192,0.0243,0.0246,0.0214,0.0214,0.0214,0.0172,0,-0.0085,0.0011,0.0058,0.0134,0.0183,0.0217,0.0264,0.0303,0.0322,0.035,0.0336,0.0347,0.032,0.0311,0.0299,0.0255,0.0241,0.0256,0.0161,0.0158,0.0203,0.0247,0.0225,0.0192,0.017,0.017,0.017,0,-0.0047,0.0016,0.0094,0.0188,0.021,0.0246,0.0312,0.0358,0.0397,0.0408,0.0415,0.0403,0.0396,0.0358,0.0306,0.0311,0.026,0.0224,0.022,0.0243,0.0208,0.0156,0.019,0.0167,0.0168,0.0168,0.0168,0,-0.0072,0.0039,0.0098,0.0131,0.0235,0.0258,0.0302,0.0358,0.0398,0.0429,0.0448,0.0441,0.0422,0.0371,0.0307,0.0296,0.0242,0.0212,0.0213,0.0215,0.0167,0.0167,0.0174,0.0174,0.0174,0.0174,0.0174,0,-0.0052,-0.0007,0.0083,0.0116,0.0176,0.0243,0.0298,0.0343,0.04,0.0448,0.0458,0.0481,0.0419,0.0389,0.0324,0.0278,0.0251,0.0236,0.0217,0.0194,0.0196,0.0146,0.0143,0.0173,0.0173,0.0173,0.0174,0,-0.0091,-0.0027,0.0042,0.0138,0.0164,0.0197,0.0291,0.0342,0.0389,0.0448,0.0456,0.0492,0.0463,0.0413,0.0329,0.0303,0.0249,0.0232,0.022,0.0203,0.0228,0.023,0.0237,0.0239,0.024,0.0241,0.0242,0,-0.0097,-0.0064,0.0031,0.0071,0.0106,0.0169,0.0226,0.031,0.037,0.0458,0.0488,0.0492,0.0519,0.045,0.0416,0.0352,0.0273,0.0254,0.0247,0.0259,0.0239,0.0238,0.0237,0.0196,0.0196,0.0197,0.0197,0,-0.011,-0.009,-0.0031,0.0049,0.0105,0.0183,0.0263,0.0308,0.0414,0.0471,0.0543,0.0572,0.0569,0.0508,0.0445,0.0401,0.0274,0.0265,0.026,0.0208,0.0224,0.0203,0.0203,0.0201,0.0201,0.02,0.02,0.02,-0.0136,-0.0101,-0.0023,0.0049,0.0116,0.0198,0.0247,0.0347,0.0439,0.0538,0.0557,0.0573,0.0469,0.0421,0.0396,0.0393,0.0392,0.0277,0.0273,0.0269,0.0297,0.0317,0.0316,0.0316,0.0316,0.0317,0.0317,0,-0.0139,-0.0084,-0.0012,0.0088,0.0154,0.0184,0.0287,0.0345,0.0441,0.0522,0.0576,0.0455,0.0407,0.0337,0.0375,0.0376,0.038,0.0312,0.0256,0.0252,0.0249,0.0274,0.0287,0.0287,0.0287,0.0287,0,0,-0.0128,-0.0058,-0.0002,0.011,0.0161,0.0228,0.0268,0.0351,0.0411,0.0504,0.0498,0.0444,0.0351,0.0284,0.0266,0.0293,0.0294,0.0314,0.0333,0.0267,0.0265,0.0219,0.0253,0,0,0,0,0]}],[{"header":{"parameterUnit":"m.s-1","parameterCategory":2,"la1":30.2991,"la2":30.254,"lo1":-89.0895,"lo2":-89.0444,"dy":0.0017,"dx":0.0017,"nx":28,"ny":28,"refTime":"2023-07-26T09:00:00:Z","depth":"4","parameterNumber":2,"parameterNumberName":"U-component_of_CURRENTS"},"data":[0,0,0,0,0,0,0,0,0,0,0,0,0,0,0,0,0,0,0,0,0,0,0,0,0,0,0,0,0,0,0,0,0,0,0,0,0,0,0,0,0,0,0,0,0,0,0,0,0,0,0,0,0,0,0,0,0,0,-0.0696,-0.0698,0,-0.084,-0.0841,-0.0842,-0.0891,-0.0891,-0.0891,-0.089,-0.1025,-0.1028,-0.1032,0,0,0,0,0,0,0,0,0,0,0,0,0,-0.0573,-0.0574,-0.0696,-0.0698,-0.07,-0.0839,-0.0841,-0.0842,-0.0891,-0.0891,-0.0891,-0.089,-0.1023,-0.1028,-0.1032,0,0,0,0,0,0,0,0,0,0,0,0,0,-0.0658,-0.0575,-0.0695,-0.0744,-0.075,-0.0839,-0.0841,-0.0843,-0.0891,-0.0891,-0.089,-0.089,-0.1022,-0.1027,-0.1033,-0.1074,0,0,-0.105,-0.1053,0,0,0,0,0,0,0,0,-0.0653,-0.0662,-0.0735,-0.0741,-0.0748,-0.0851,-0.0847,-0.0921,-0.0891,-0.0833,-0.089,-0.089,-0.0969,-0.0979,-0.1,-0.108,-0.1086,-0.1051,-0.1054,-0.1057,-0.1058,0,0,0,0,0,0,0,-0.0647,-0.0657,-0.0748,-0.0737,-0.0745,-0.0797,-0.0807,-0.0862,-0.0897,-0.0838,-0.0843,-0.0866,-0.0972,-0.0995,-0.1004,-0.1088,-0.1051,-0.1056,-0.1059,-0.1061,-0.1273,-0.1276,0,0,0,0,0,0,-0.0633,-0.0651,-0.0744,-0.0753,-0.0704,-0.0799,-0.0811,-0.0815,-0.0897,-0.0911,-0.0866,-0.0868,-0.0985,-0.0997,-0.1009,-0.1136,-0.1057,-0.1062,-0.1065,-0.1271,-0.1274,-0.1276,0,0,0,0,0,0,-0.0629,-0.0639,-0.0738,-0.071,-0.0727,-0.0801,-0.0806,-0.0818,-0.0859,-0.0919,-0.0932,-0.0897,-0.0986,-0.1001,-0.1098,-0.1138,-0.1064,-0.1069,-0.1269,-0.1272,-0.1275,-0.1342,0,0,0,0,0,0,-0.0625,-0.0636,-0.0662,-0.0708,-0.0728,-0.082,-0.0807,-0.0821,-0.0875,-0.0878,-0.095,-0.0961,-0.0987,-0.1089,-0.1103,-0.1145,-0.1074,-0.1266,-0.127,-0.1274,-0.1337,-0.1348,-0.1356,0,0,0,0,0,-0.0619,-0.0653,-0.0662,-0.0675,-0.075,-0.0822,-0.0838,-0.0887,-0.0876,-0.0917,-0.0968,-0.096,-0.1125,-0.1097,-0.1112,-0.1156,-0.1264,-0.1269,-0.1274,-0.1333,-0.1346,-0.1356,0,0,0,0,0,0,-0.062,-0.0663,-0.0673,-0.0719,-0.0779,-0.0833,-0.0873,-0.0897,-0.0967,-0.0959,-0.1004,-0.1022,-0.1111,-0.1131,-0.1098,-0.1228,-0.1187,-0.1195,-0.1226,-0.1239,-0.1248,-0.1211,-0.1079,0,0,0,0,0,-0.0629,-0.0655,-0.0712,-0.0749,-0.0771,-0.082,-0.0861,-0.0886,-0.0943,-0.0971,-0.1016,-0.1069,-0.1142,-0.1188,-0.1237,-0.1326,-0.1299,-0.1359,-0.1368,-0.1376,-0.1357,-0.1373,-0.1381,-0.1293,-0.1293,-0.1293,0,0,-0.0647,-0.0666,-0.0689,-0.0752,-0.0784,-0.085,-0.0843,-0.0894,-0.0958,-0.0975,-0.1063,-0.11,-0.117,-0.1264,-0.1305,-0.1291,-0.1389,-0.1383,-0.1389,-0.1365,-0.1379,-0.1387,-0.1394,-0.1297,-0.1296,-0.1295,0,0,-0.0666,-0.0695,-0.0719,-0.0776,-0.0832,-0.0874,-0.0892,-0.0947,-0.0982,-0.1071,-0.1099,-0.1169,-0.1265,-0.1334,-0.1381,-0.1476,-0.1429,-0.1484,-0.1519,-0.1537,-0.1543,-0.1548,-0.1522,-0.1524,-0.1501,-0.1501,-0.1501,0,-0.0686,-0.072,-0.0747,-0.0791,-0.085,-0.0886,-0.0945,-0.1002,-0.1086,-0.1118,-0.1103,-0.1252,-0.13,-0.1445,-0.1467,-0.1498,-0.1471,-0.1473,-0.1547,-0.1551,-0.1555,-0.1527,-0.1528,-0.1505,-0.1504,-0.1504,-0.1503,0,-0.0722,-0.0774,-0.0792,-0.086,-0.0931,-0.0986,-0.1064,-0.1117,-0.1142,-0.1188,-0.1291,-0.1362,-0.1442,-0.1482,-0.1502,-0.1582,-0.1539,-0.1546,-0.151,-0.1568,-0.1535,-0.1535,-0.151,-0.1509,-0.1508,-0.1507,0,0,-0.07,-0.0798,-0.0805,-0.0863,-0.097,-0.1029,-0.1126,-0.1226,-0.1284,-0.1346,-0.1428,-0.1538,-0.1528,-0.1579,-0.1624,-0.1647,-0.1654,-0.1597,-0.1597,-0.1555,-0.1645,-0.1469,-0.1452,-0.1662,-0.1663,-0.1663,-0.1607,0,-0.072,-0.0797,-0.0855,-0.098,-0.1044,-0.1126,-0.1218,-0.1312,-0.1376,-0.1463,-0.1527,-0.1604,-0.1589,-0.1616,-0.1645,-0.1656,-0.1657,-0.1665,-0.1606,-0.1603,-0.1429,-0.1449,-0.1666,-0.1607,-0.1607,-0.1607,-0.1607,0,-0.0732,-0.0793,-0.088,-0.1036,-0.1067,-0.1142,-0.1284,-0.1378,-0.1501,-0.1539,-0.1618,-0.165,-0.1722,-0.1681,-0.1705,-0.1701,-0.1655,-0.1649,-0.1648,-0.1451,-0.1428,-0.154,-0.1607,-0.1607,-0.1607,-0.1607,-0.1607,0,-0.0682,-0.0823,-0.0885,-0.0944,-0.1109,-0.1153,-0.1239,-0.137,-0.1463,-0.1568,-0.1616,-0.1702,-0.1728,-0.1716,-0.1673,-0.1677,-0.1664,-0.1682,-0.1487,-0.1474,-0.1619,-0.1614,-0.1663,-0.1663,-0.1663,-0.1663,-0.1664,0,-0.0676,-0.0751,-0.0857,-0.0902,-0.1014,-0.1118,-0.1241,-0.1327,-0.1463,-0.154,-0.1627,-0.164,-0.1723,-0.1727,-0.1686,-0.1563,-0.1666,-0.1466,-0.1445,-0.165,-0.1649,-0.1618,-0.1614,-0.1661,-0.1662,-0.1662,-0.1663,0,-0.062,-0.0682,-0.0794,-0.0935,-0.0987,-0.1059,-0.1253,-0.1333,-0.1437,-0.1538,-0.1555,-0.1611,-0.1514,-0.1592,-0.1559,-0.1543,-0.1477,-0.1406,-0.1591,-0.1586,-0.1271,-0.1271,-0.118,-0.1173,-0.1168,-0.1163,-0.1159,0,-0.0599,-0.0626,-0.0792,-0.0855,-0.0914,-0.1046,-0.1128,-0.1293,-0.1334,-0.1448,-0.1427,-0.1415,-0.1413,-0.1245,-0.1301,-0.1252,-0.1233,-0.1261,-0.1281,-0.123,-0.1221,-0.123,-0.1238,-0.115,-0.1148,-0.1147,-0.1145,0,-0.0578,-0.0611,-0.0699,-0.0803,-0.0892,-0.1004,-0.1077,-0.1101,-0.1224,-0.1394,-0.1242,-0.1213,-0.1108,-0.1044,-0.1043,-0.1003,-0.1296,-0.1202,-0.1214,-0.1231,-0.1193,-0.1191,-0.1206,-0.1126,-0.1128,-0.113,-0.1131,0,-0.0568,-0.0606,-0.0674,-0.0754,-0.087,-0.0841,-0.093,-0.0909,-0.0978,-0.1078,-0.0986,-0.0961,-0.101,-0.09,-0.0867,-0.0851,-0.0828,-0.0886,-0.0914,-0.0937,-0.089,-0.0807,-0.0579,0,0,0,0,0,-0.0564,-0.0557,-0.0621,-0.066,-0.0743,-0.0772,-0.0844,-0.0901,-0.1012,-0.087,-0.0933,-0.0798,-0.0724,-0.0679,-0.06,-0.074,-0.084,-0.0655,-0.0924,-0.1016,-0.1039,-0.1009,0,0,0,0,0,0,-0.056,-0.0614,-0.0586,-0.0529,-0.052,-0.056,-0.0589,-0.065,-0.0539,-0.0668,-0.0568,-0.0759,-0.0625,-0.0715,-0.0569,-0.0582,-0.0743,-0.0687,-0.0685,-0.1003,-0.1024,-0.1042,-0.102,0,0,0,0,0]},{"header":{"parameterUnit":"m.s-1","parameterCategory":2,"la1":30.2991,"la2":30.254,"lo1":-89.0895,"lo2":-89.0444,"dy":0.0017,"dx":0.0017,"nx":28,"ny":28,"refTime":"2023-07-26T09:00:00:Z","depth":"4","parameterNumber":3,"parameterNumberName":"V-component_of_CURRENTS"},"data":[0,0,0,0,0,0,0,0,0,0,0,0,0,0,0,0,0,0,0,0,0,0,0,0,0,0,0,0,0,0,0,0,0,0,0,0,0,0,0,0,0,0,0,0,0,0,0,0,0,0,0,0,0,0,0,0,0,0,0.0221,0.0221,0,0.0256,0.0256,0.0257,0.0345,0.0347,0.0349,0.0351,0.048,0.0482,0.0483,0,0,0,0,0,0,0,0,0,0,0,0,0,0.0216,0.0216,0.0221,0.0221,0.0222,0.0256,0.0256,0.0257,0.0345,0.0347,0.035,0.0352,0.0479,0.0481,0.0483,0,0,0,0,0,0,0,0,0,0,0,0,0,0.0231,0.0216,0.0221,0.0271,0.0275,0.0256,0.0256,0.0257,0.0345,0.0348,0.035,0.0353,0.0479,0.0481,0.0484,0.044,0,0,0.0491,0.0492,0,0,0,0,0,0,0,0,0.023,0.0231,0.0263,0.0267,0.0272,0.03,0.0302,0.0323,0.0344,0.0318,0.0351,0.0355,0.0427,0.0434,0.0431,0.0446,0.0452,0.0491,0.0493,0.0494,0.0494,0,0,0,0,0,0,0,0.0229,0.023,0.0234,0.0263,0.0269,0.0286,0.0292,0.0306,0.0357,0.032,0.0327,0.0331,0.043,0.0429,0.0435,0.0454,0.0491,0.0493,0.0495,0.0496,0.0552,0.0552,0,0,0,0,0,0,0.0223,0.0228,0.0233,0.0235,0.0259,0.0284,0.029,0.0288,0.0355,0.0367,0.0328,0.0335,0.0423,0.0432,0.044,0.0466,0.0494,0.0496,0.0497,0.0552,0.0552,0.0552,0,0,0,0,0,0,0.0222,0.0222,0.0232,0.0234,0.0236,0.0281,0.0278,0.0287,0.0318,0.036,0.0375,0.0354,0.0426,0.0437,0.0482,0.0469,0.0497,0.0499,0.0552,0.0552,0.0552,0.0471,0,0,0,0,0,0,0.0222,0.0222,0.0245,0.0233,0.0236,0.0233,0.0275,0.0285,0.0314,0.0324,0.0386,0.0399,0.0429,0.0478,0.0484,0.0473,0.0501,0.0552,0.0552,0.0552,0.0473,0.0468,0.0464,0,0,0,0,0,0.0221,0.0222,0.0245,0.0248,0.0257,0.0232,0.0235,0.0277,0.0312,0.0317,0.037,0.0399,0.0483,0.0479,0.0487,0.0476,0.0552,0.0552,0.0552,0.0476,0.0469,0.0464,0,0,0,0,0,0,0.0232,0.0231,0.0256,0.026,0.0257,0.0248,0.0261,0.0282,0.0322,0.0343,0.0394,0.041,0.0441,0.0474,0.0468,0.0496,0.0524,0.0525,0.0463,0.0457,0.0452,0.0429,0.0503,0,0,0,0,0,0.0243,0.0249,0.0242,0.025,0.0244,0.0256,0.0264,0.0278,0.0298,0.032,0.0356,0.0403,0.0436,0.0463,0.0489,0.0501,0.0543,0.0503,0.0498,0.0494,0.0482,0.0544,0.0543,0.0553,0.0553,0.0553,0,0,0.0259,0.0252,0.0266,0.0255,0.0256,0.0224,0.0268,0.0263,0.0253,0.0325,0.0337,0.0381,0.0436,0.0451,0.0468,0.0485,0.0513,0.0494,0.0489,0.048,0.0544,0.0543,0.0542,0.0553,0.0553,0.0553,0,0,0.0239,0.0272,0.0254,0.0237,0.0228,0.0226,0.0226,0.0216,0.0239,0.0243,0.0299,0.035,0.0379,0.0423,0.045,0.0437,0.048,0.0439,0.0398,0.0458,0.0457,0.0457,0.0503,0.0508,0.0442,0.0441,0.0441,0,0.0263,0.0225,0.0247,0.0199,0.0184,0.022,0.0174,0.0187,0.0199,0.0213,0.0243,0.0317,0.0367,0.0407,0.0398,0.0425,0.0454,0.0412,0.045,0.0451,0.0452,0.0499,0.0506,0.0438,0.0438,0.0438,0.0439,0,0.0199,0.018,0.0158,0.0117,0.0106,0.0073,0.0075,0.0082,0.0115,0.0131,0.0178,0.0251,0.0297,0.0322,0.035,0.0382,0.0397,0.0431,0.0459,0.0446,0.0497,0.0505,0.0432,0.0433,0.0435,0.0436,0,0,0.0224,0.0133,0.0133,0.0088,0.0057,0.0028,0.0017,0.0011,0.0014,0.0061,0.0076,0.0147,0.0197,0.0231,0.0291,0.0346,0.0383,0.0374,0.038,0.0408,0.0495,0.0339,0.0334,0.0413,0.0414,0.0415,0.0524,0,0.0173,0.0061,0.004,-0.0043,-0.0104,-0.0086,-0.0104,-0.0092,-0.0061,-0.0037,0.007,0.0104,0.0161,0.0186,0.0248,0.0342,0.0399,0.0349,0.0514,0.0518,0.0372,0.0336,0.0418,0.0531,0.0532,0.0534,0.0535,0,0.0118,0.0043,-0.0054,-0.0145,-0.0164,-0.0189,-0.0203,-0.0218,-0.0163,-0.0134,-0.0066,-0.0003,0.0084,0.0141,0.0301,0.0257,0.0358,0.0446,0.0453,0.0337,0.0375,0.0551,0.055,0.0549,0.0548,0.0547,0.0546,0,0.0103,-0.0016,-0.0093,-0.0127,-0.0215,-0.0228,-0.0248,-0.0229,-0.0239,-0.0183,-0.0175,-0.0065,-0.0002,0.0131,0.0274,0.0287,0.0449,0.0506,0.0475,0.0467,0.0616,0.0615,0.0629,0.0629,0.0628,0.0628,0.0628,0,0.004,-0.002,-0.0101,-0.0151,-0.0233,-0.0259,-0.0305,-0.0308,-0.0285,-0.0299,-0.0218,-0.0203,-0.0006,0.0096,0.0244,0.0346,0.0431,0.0443,0.0472,0.0579,0.0573,0.0622,0.062,0.0632,0.0631,0.0631,0.063,0,0.002,-0.003,-0.0135,-0.0223,-0.025,-0.0299,-0.0363,-0.0398,-0.0364,-0.0375,-0.0364,-0.0289,-0.0207,-0.0028,0.0188,0.0283,0.0422,0.0454,0.0525,0.0561,0.0418,0.0411,0.0425,0.042,0.0416,0.0412,0.0409,0,-0.0018,-0.0067,-0.0178,-0.0249,-0.029,-0.0363,-0.0419,-0.0426,-0.0445,-0.044,-0.0438,-0.039,-0.0336,-0.0126,0.003,0.0257,0.0302,0.0397,0.0422,0.0364,0.0393,0.0392,0.039,0.0403,0.0402,0.0401,0.0399,0,-0.0095,-0.0101,-0.0189,-0.0311,-0.0388,-0.049,-0.0541,-0.054,-0.0538,-0.0538,-0.0496,-0.0426,-0.0357,-0.0199,-0.0052,0.0128,0.0338,0.0355,0.0367,0.0392,0.0338,0.037,0.0373,0.0385,0.0387,0.0388,0.0389,0,-0.0134,-0.0201,-0.0282,-0.0369,-0.0497,-0.0559,-0.0584,-0.0593,-0.0595,-0.0538,-0.0546,-0.0463,-0.0404,-0.0272,-0.0132,-0.0011,0.004,0.0154,0.0178,0.0195,0.0067,-0.0038,-0.0104,0,0,0,0,0,-0.019,-0.0237,-0.0345,-0.0435,-0.055,-0.0589,-0.0657,-0.0652,-0.0624,-0.0597,-0.0548,-0.0491,-0.0362,-0.0315,-0.022,-0.0226,0.0045,-0.0114,0.0187,0.0305,0.0322,0.0192,0,0,0,0,0,0,-0.0245,-0.0331,-0.0343,-0.0445,-0.0499,-0.0606,-0.0637,-0.0619,-0.0573,-0.0543,-0.0471,-0.0451,-0.0326,-0.0396,-0.0206,-0.0185,0.0022,-0.0061,-0.0059,0.0296,0.0311,0.0324,0.0197,0,0,0,0,0]}]]